Location: Jackson
(42.2460°N, 84.4010°W)
Time: 23:25:02
(UTC-04:00)

Vanguard 2 - Pass Details

Date: 14 February 2026
Orbit: 553 x 2896 km, 32.9° (Epoch: 16 March)

Event Time Altitude Azimuth Distance (km) Brightness Sun altitude
Rises 06:48:38 0° 215° (SW) 3,263 10.5 -9.2°
Reaches altitude 10° 06:52:56 10° 183° (S) 2,018 9.8 -8.4°
Maximum altitude 06:54:27 12° 163° (SSE) 1,837 9.9 -8.2°
Drops below altitude 10° 06:55:54 10° 142° (SE) 1,879 10.3 -7.9°
Sets 06:59:28 0° 107° (ESE) 2,713 12.8 -7.2°
